H1 CPF 2 NER 2023 9 13 9 256 01 glonass143 H2 2007501 9143 46805 2023 9 13 0 0 0 2023 9 16 23 45 0 900 1 1 0 0 0 1 H9 10 0 60200 0.00000 0 -10834823.599 -21690377.421 7968065.394 10 0 60200 900.00000 0 -10236269.419 -20685946.639 10895759.163 10 0 60200 1800.00000 0 -9336878.695 -19467284.930 13612157.198 10 0 60200 2700.00000 0 -8125969.573 -18093109.922 16064616.535 10 0 60200 3600.00000 0 -6605467.231 -16625047.515 18205615.802 10 0 60200 4500.00000 0 -4790085.907 -15125031.673 19993668.908 10 0 60200 5400.00000 0 -2706978.275 -13652712.132 21394122.134 10 0 60200 6300.00000 0 -394865.687 -12262977.885 22379820.061 10 0 60200 7200.00000 0 2097315.759 -11003699.273 22931628.150 10 0 60200 8100.00000 0 4712198.482 -9913782.249 23038802.445 10 0 60200 9000.00000 0 7386123.547 -9021615.331 22699199.607 10 0 60200 9900.00000 0 10051550.366 -8343973.560 21919323.147 10 0 60200 10800.00000 0 12639637.558 -7885424.825 20714204.707 10 0 60200 11700.00000 0 15082889.203 -7638263.177 19107121.959 10 0 60200 12600.00000 0 17317757.705 -7582971.952 17129157.739 10 0 60200 13500.00000 0 19287095.865 -7689197.444 14818607.843 10 0 60200 14400.00000 0 20942356.581 -7917192.492 12220247.859 10 0 60200 15300.00000 0 22245448.587 -8219669.532 9384472.231 10 0 60200 16200.00000 0 23170170.599 -8543985.178 6366321.448 10 0 60200 17100.00000 0 23703163.574 -8834564.103 3224415.661 10 0 60200 18000.00000 0 23844340.726 -9035459.487 19815.325 10 0 60200 18900.00000 0 23606776.908 -9092941.113 -3185168.852 10 0 60200 19800.00000 0 23016061.699 -8958000.642 -6328193.029 10 0 60200 20700.00000 0 22109143.353 -8588666.791 -9348099.975 10 0 60200 21600.00000 0 20932712.398 -7952031.031 -12186116.801 10 0 60200 22500.00000 0 19541193.289 -7025896.543 -14787006.505 10 0 60200 23400.00000 0 17994429.235 -5799979.182 -17100149.968 10 0 60200 24300.00000 0 16355158.241 -4276608.242 -19080536.718 10 0 60200 25200.00000 0 14686387.212 -2470896.031 -20689644.684 10 0 60200 26100.00000 0 13048775.038 -410367.926 -21896191.577 10 0 60200 27000.00000 0 11498134.969 1865932.678 -22676743.311 10 0 60200 27900.00000 0 10083161.214 4308827.861 -23016167.830 10 0 60200 28800.00000 0 8843474.979 6860819.921 -22907925.865 10 0 60200 29700.00000 0 7808071.356 9458262.106 -22354193.373 10 0 60200 30600.00000 0 6994231.381 12033795.177 -21365813.736 10 0 60200 31500.00000 0 6406943.846 14518948.549 -19962081.024 10 0 60200 32400.00000 0 6038859.831 16846797.953 -18170358.895 10 0 60200 33300.00000 0 5870780.498 18954569.224 -16025542.800 10 0 60200 34200.00000 0 5872656.214 20786080.073 -13569376.193 10 0 60200 35100.00000 0 6005053.565 22293918.530 -10849634.248 10 0 60200 36000.00000 0 6221027.201 23441267.796 -7919191.141 10 0 60200 36900.00000 0 6468316.400 24203302.034 -4834989.304 10 0 60200 37800.00000 0 6691772.742 24568095.662 -1656930.910 10 0 60200 38700.00000 0 6835915.587 24537009.138 1553286.590 10 0 60200 39600.00000 0 6847506.844 24124536.128 4733368.005 10 0 60200 40500.00000 0 6678035.877 23357619.584 7821627.585 10 0 60200 41400.00000 0 6286009.328 22274466.312 10758182.398 10 0 60200 42300.00000 0 5638949.023 20922910.600 13486108.812 10 0 60200 43200.00000 0 4715013.526 19358395.987 15952539.997 10 0 60200 44100.00000 0 3504174.743 17641659.990 18109683.684 10 0 60200 45000.00000 0 2008899.666 15836218.671 19915741.114 10 0 60200 45900.00000 0 244307.929 14005755.855 21335710.177 10 0 60200 46800.00000 0 -1762202.420 12211525.477 22342058.023 10 0 60200 47700.00000 0 -3971846.506 10509874.713 22915250.843 10 0 60200 48600.00000 0 -6335825.888 8949990.292 23044131.196 10 0 60200 49500.00000 0 -8797127.940 7571961.059 22726135.879 10 0 60200 50400.00000 0 -11292678.162 6405236.722 21967350.166 10 0 60200 51300.00000 0 -13755757.623 5467546.370 20782397.052 10 0 60200 52200.00000 0 -16118586.562 4764321.348 19194162.990 10 0 60200 53100.00000 0 -18314967.940 4288646.319 17233364.563 10 0 60200 54000.00000 0 -20282881.897 4021740.356 14937963.402 10 0 60200 54900.00000 0 -21966923.573 3933947.899 12352439.578 10 0 60200 55800.00000 0 -23320482.774 3986197.937 9526936.525 10 0 60200 56700.00000 0 -24307574.243 4131870.016 6516293.258 10 0 60200 57600.00000 0 -24904241.529 4318988.252 3378982.085 10 0 60200 58500.00000 0 -25099474.996 4492650.361 175972.280 10 0 60200 59400.00000 0 -24895604.804 4597588.431 -3030458.047 10 0 60200 60300.00000 0 -24308151.753 4580752.198 -6177938.325 10 0 60200 61200.00000 0 -23365141.827 4393804.349 -9205225.716 10 0 60200 62100.00000 0 -22105913.061 3995420.855 -12053404.487 10 0 60200 63000.00000 0 -20579464.951 3353297.530 -14667040.316 10 0 60200 63900.00000 0 -18842420.086 2445776.412 -16995266.165 10 0 60200 64800.00000 0 -16956684.130 1263021.736 -18992777.898 10 0 60200 65700.00000 0 -14986902.940 -192305.506 -20620719.796 10 0 60200 66600.00000 0 -12997824.039 -1904904.158 -21847442.508 10 0 60200 67500.00000 0 -11051673.467 -3847227.773 -22649118.669 10 0 60200 68400.00000 0 -9205658.039 -5980402.166 -23010204.471 10 0 60200 69300.00000 0 -7509697.491 -8255627.928 -22923738.497 10 0 60200 70200.00000 0 -6004480.960 -10616009.834 -22391472.459 10 0 60200 71100.00000 0 -4719928.364 -12998737.169 -21423831.706 10 0 60200 72000.00000 0 -3674119.994 -15337524.205 -20039706.687 10 0 60200 72900.00000 0 -2872737.807 -17565209.310 -18266079.739 10 0 60200 73800.00000 0 -2309040.305 -19616404.463 -16137494.739 10 0 60200 74700.00000 0 -1964370.410 -21430084.813 -13695380.177 10 0 60200 75600.00000 0 -1809173.361 -22952010.510 -10987238.985 10 0 60200 76500.00000 0 -1804480.190 -24136879.987 -8065721.096 10 0 60200 77400.00000 0 -1903792.856 -24950125.179 -4987596.996 10 0 60200 78300.00000 0 -2055290.230 -25369274.157 -1812652.479 10 0 60200 79200.00000 0 -2204260.807 -25384824.856 1397473.680 10 0 60200 80100.00000 0 -2295658.562 -25000594.088 4580486.250 10 0 60200 81000.00000 0 -2276673.393 -24233528.016 7674640.876 10 0 60200 81900.00000 0 -2099207.185 -23112982.824 10619938.732 10 0 60200 82800.00000 0 -1722150.702 -21679506.369 13359285.380 10 0 60200 83700.00000 0 -1113365.063 -19983172.336 15839591.676 10 0 60200 84600.00000 0 -251284.114 -18081536.791 18012795.901 10 0 60200 85500.00000 0 873930.053 -16037302.570 19836787.928 10 0 60201 0.00000 0 2259727.318 -13915788.852 21276218.260 10 0 60201 900.00000 0 3891034.750 -11782309.738 22303177.768 10 0 60201 1800.00000 0 5740651.540 -9699573.134 22897733.894 10 0 60201 2700.00000 0 7770160.962 -7725203.482 23048316.107 10 0 60201 3600.00000 0 9931321.020 -5909493.263 22751941.508 10 0 60201 4500.00000 0 12167878.166 -4293474.710 22014277.060 10 0 60201 5400.00000 0 14417730.115 -2907391.299 20849536.812 10 0 60201 6300.00000 0 16615349.294 -1769631.910 19280215.485 10 0 60201 7200.00000 0 18694367.329 -886171.555 17336662.669 10 0 60201 8100.00000 0 20590213.952 -250541.614 15056504.860 10 0 60201 9000.00000 0 22242700.927 155669.444 12483925.376 10 0 60201 9900.00000 0 23598443.336 361806.035 9668815.111 10 0 60201 10800.00000 0 24613016.853 406668.730 6665809.771 10 0 60201 11700.00000 0 25252760.178 336633.262 3533231.656 10 0 60201 12600.00000 0 25496146.340 203444.957 331956.409 10 0 60201 13500.00000 0 25334664.426 61782.373 -2875773.152 10 0 60201 14400.00000 0 24773173.838 -33306.037 -6027562.580 10 0 60201 15300.00000 0 23829715.384 -28982.704 -9062086.337 10 0 60201 16200.00000 0 22534786.589 122891.331 -11920288.704 10 0 60201 17100.00000 0 20930111.332 463468.403 -14546540.771 10 0 60201 18000.00000 0 19066955.444 1024924.171 -16889730.110 10 0 60201 18900.00000 0 17004059.150 1828851.100 -18904261.217 10 0 60201 19800.00000 0 14805273.364 2885104.649 -20550946.777 10 0 60201 20700.00000 0 12536999.303 4191152.102 -21797772.149 10 0 60201 21600.00000 0 10265538.930 5731952.510 -22620518.194 10 0 60201 22500.00000 0 8054467.215 7480373.759 -23003230.531 10 0 60201 23400.00000 0 5962136.031 9398129.965 -22938526.437 10 0 60201 24300.00000 0 4039413.584 11437200.525 -22427733.815 10 0 60201 25200.00000 0 2327753.136 13541671.843 -21480860.004 10 0 60201 26100.00000 0 857670.705 15649924.983 -20116391.390 10 0 60201 27000.00000 0 -352305.936 17697078.021 -18360928.088 10 0 60201 27900.00000 0 -1296174.549 19617581.170 -16248661.042 10 0 60201 28800.00000 0 -1980461.208 21347856.303 -13820701.972 10 0 60201 29700.00000 0 -2423690.258 22828870.646 -11124279.365 10 0 60201 30600.00000 0 -2655345.530 24008537.157 -8211816.333 10 0 60201 31500.00000 0 -2714368.198 24843841.344 -5139908.541 10 0 60201 32400.00000 0 -2647256.134 25302605.786 -1968222.276 10 0 60201 33300.00000 0 -2505846.201 25364818.853 1241665.636 10 0 60201 34200.00000 0 -2344874.209 25023472.413 4427463.271 10 0 60201 35100.00000 0 -2219416.327 24284873.971 7527370.989 10 0 60201 36000.00000 0 -2182320.599 23168420.673 10481277.290 10 0 60201 36900.00000 0 -2281737.325 21705845.139 13231919.965 10 0 60201 37800.00000 0 -2558852.710 19939964.984 15725990.353 10 0 60201 38700.00000 0 -3045921.449 17922988.475 17915159.786 10 0 60201 39600.00000 0 -3764681.202 15714446.997 19757008.961 10 0 60201 40500.00000 0 -4725215.933 13378840.198 21215843.049 10 0 60201 41400.00000 0 -5925316.277 10983091.311 22263377.576 10 0 60201 42300.00000 0 -7350364.487 8593917.744 22879282.557 10 0 60201 43200.00000 0 -8973749.795 6275225.243 23051574.953 10 0 60201 44100.00000 0 -10757798.108 4085632.825 22776852.241 10 0 60201 45000.00000 0 -12655178.687 2076230.243 22060362.609 10 0 60201 45900.00000 0 -14610730.679 288660.097 20915910.150 10 0 60201 46800.00000 0 -16563634.899 -1246396.555 19365596.268 10 0 60201 47700.00000 0 -18449841.636 -2510268.767 17439401.450 10 0 60201 48600.00000 0 -20204654.324 -3496835.357 15174614.449 10 0 60201 49500.00000 0 -21765361.953 -4212533.491 12615118.813 10 0 60201 50400.00000 0 -23073810.519 -4675836.183 9810549.577 10 0 60201 51300.00000 0 -24078805.792 -4916220.876 6815335.604 10 0 60201 52200.00000 0 -24738246.276 -4972672.797 3687645.578 10 0 60201 53100.00000 0 -25020896.024 -4891786.487 488257.907 10 0 60201 54000.00000 0 -24907721.879 -4725546.207 -2720623.385 10 0 60201 54900.00000 0 -24392737.787 -4528879.705 -5876583.318 10 0 60201 55800.00000 0 -23483319.634 -4357089.802 -8918216.792 10 0 60201 56700.00000 0 -22199976.406 -4263273.582 -11786330.980 10 0 60201 57600.00000 0 -20575586.563 -4295839.677 -14425104.967 10 0 60201 58500.00000 0 -18654131.261 -4496230.036 -16783183.147 10 0 60201 59400.00000 0 -16488977.393 -4896943.815 -18814680.422 10 0 60201 60300.00000 0 -14140782.411 -5519948.148 -20480079.141 10 0 60201 61200.00000 0 -11675108.873 -6375543.985 -21747000.060 10 0 60201 62100.00000 0 -9159848.637 -7461735.789 -22590832.326 10 0 60201 63000.00000 0 -6662564.451 -8764132.427 -22995210.441 10 0 60201 63900.00000 0 -4247859.914 -10256384.089 -22952329.239 10 0 60201 64800.00000 0 -1974887.227 -11901137.364 -22463091.187 10 0 60201 65700.00000 0 104903.870 -13651468.775 -21537083.546 10 0 60201 66600.00000 0 1949682.933 -15452736.929 -20192386.254 10 0 60201 67500.00000 0 3528742.611 -17244775.802 -18455214.579 10 0 60201 68400.00000 0 4823528.061 -18964337.409 -16359403.765 10 0 60201 69300.00000 0 5828150.572 -20547681.527 -13945745.921 10 0 60201 70200.00000 0 6549365.734 -21933204.001 -11261192.231 10 0 60201 71100.00000 0 7006018.937 -23063993.523 -8357936.188 10 0 60201 72000.00000 0 7227983.338 -23890209.716 -5292395.922 10 0 60201 72900.00000 0 7254636.716 -24371182.896 -2124115.645 10 0 60201 73800.00000 0 7132942.931 -24477147.624 1085392.179 10 0 60201 74700.00000 0 6915220.180 -24190537.512 4273841.158 10 0 60201 75600.00000 0 6656691.262 -23506787.286 7379378.401 10 0 60201 76500.00000 0 6412919.964 -22434608.721 10341781.547 10 0 60201 77400.00000 0 6237242.263 -20995729.163 13103622.217 10 0 60201 78300.00000 0 6178300.922 -19224103.716 15611373.601 10 0 60201 79200.00000 0 6277787.513 -17164634.011 17816441.201 10 0 60201 80100.00000 0 6568486.945 -14871446.861 19676097.390 10 0 60201 81000.00000 0 7072706.818 -12405804.131 21154302.466 10 0 60201 81900.00000 0 7801157.722 -9833730.131 22222397.157 10 0 60201 82800.00000 0 8752331.864 -7223454.354 22859653.900 10 0 60201 83700.00000 0 9912406.673 -4642774.691 23053676.877 10 0 60201 84600.00000 0 11255678.367 -2156449.410 22800643.435 10 0 60201 85500.00000 0 12745508.505 176275.050 22105382.267 10 0 60202 0.00000 0 14335745.156 2303898.810 20981286.729 10 0 60202 900.00000 0 15972561.609 4184575.180 19450063.659 10 0 60202 1800.00000 0 17596634.976 5787607.931 17541323.341 10 0 60202 2700.00000 0 19145577.621 7094481.393 15292015.474 10 0 60202 3600.00000 0 20556518.506 8099378.020 12745722.390 10 0 60202 4500.00000 0 21768727.652 8809163.343 9951821.652 10 0 60202 5400.00000 0 22726173.609 9242839.055 6964533.506 10 0 60202 6300.00000 0 23379906.283 9430487.491 3841871.057 10 0 60202 7200.00000 0 23690164.218 9411752.254 644513.341 10 0 60202 8100.00000 0 23628116.711 9233919.537 -2565376.683 10 0 60202 9000.00000 0 23177166.218 8949681.757 -5725365.856 10 0 60202 9900.00000 0 22333754.961 8614678.868 -8773971.891 10 0 60202 10800.00000 0 21107640.544 8284922.334 -11651867.166 10 0 60202 11700.00000 0 19521627.909 8014211.855 -14303040.955 10 0 60202 12600.00000 0 17610768.054 7851655.338 -16675896.511 10 0 60202 13500.00000 0 15421056.550 7839398.164 -18724261.006 10 0 60202 14400.00000 0 13007686.066 8010658.818 -20408288.133 10 0 60202 15300.00000 0 10432925.936 8388154.806 -21695235.556 10 0 60202 16200.00000 0 7763717.383 8982986.085 -22560102.048 10 0 60202 17100.00000 0 5069084.805 9794023.673 -22986112.137 10 0 60202 18000.00000 0 2417471.085 10807829.660 -22965039.121 10 0 60202 18900.00000 0 -125892.269 11999112.281 -22497360.625 10 0 60202 19800.00000 0 -2501471.023 13331697.120 -21592244.079 10 0 60202 20700.00000 0 -4657667.268 14759973.726 -20267362.791 10 0 60202 21600.00000 0 -6552719.330 16230756.904 -18548546.562 10 0 60202 22500.00000 0 -8156184.573 17685484.535 -16469273.857 10 0 60202 23400.00000 0 -9449944.672 19062659.539 -14070015.663 10 0 60202 24300.00000 0 -10428693.054 20300433.380 -11397443.961 10 0 60202 25200.00000 0 -11099885.919 21339222.523 -8503520.379 10 0 60202 26100.00000 0 -11483160.755 22124247.832 -5444482.985 10 0 60202 27000.00000 0 -11609248.576 22607890.160 -2279751.166 10 0 60202 27900.00000 0 -11518427.367 22751763.166 929229.897 10 0 60202 28800.00000 0 -11258583.301 22528416.251 4120182.365 10 0 60202 29700.00000 0 -10882962.704 21922596.196 7231203.163 10 0 60202 30600.00000 0 -10447710.480 20932014.580 10201962.142 10 0 60202 31500.00000 0 -10009299.421 19567588.854 12974867.749 10 0 60202 32400.00000 0 -9621959.125 17853146.926 15496177.901 10 0 60202 33300.00000 0 -9335212.947 15824607.422 17717034.974 10 0 60202 34200.00000 0 -9191626.612 13528669.544 19594405.477 10 0 60202 35100.00000 0 -9224863.048 11021066.553 21091907.017 10 0 60202 36000.00000 0 -9458125.031 8364454.841 22180507.359 10 0 60202 36900.00000 0 -9903051.043 5626025.335 22839082.805 10 0 60202 37800.00000 0 -10559110.842 2874935.308 23054825.751 10 0 60202 38700.00000 0 -11413526.577 179665.840 22823493.902 10 0 60202 39600.00000 0 -12441723.480 -2394586.724 22149496.414 10 0 60202 40500.00000 0 -13608292.287 -4788378.391 21045815.052 10 0 60202 41400.00000 0 -14868424.266 -6950242.979 19533761.317 10 0 60202 42300.00000 0 -16169759.980 -8838583.897 17642573.380 10 0 60202 43200.00000 0 -17454575.486 -10423154.350 15408859.626 10 0 60202 44100.00000 0 -18662215.297 -11686064.874 12875898.453 10 0 60202 45000.00000 0 -19731670.616 -12622276.498 10092806.871 10 0 60202 45900.00000 0 -20604194.823 -13239559.209 7113593.150 10 0 60202 46800.00000 0 -21225846.054 -13557917.704 3996111.285 10 0 60202 47700.00000 0 -21549849.247 -13608508.786 800937.342 10 0 60202 48600.00000 0 -21538677.244 -13432096.414 -2409810.393 10 0 60202 49500.00000 0 -21165761.980 -13077110.005 -5573684.118 10 0 60202 50400.00000 0 -20416762.294 -12597388.704 -8629127.757 10 0 60202 51300.00000 0 -19290333.484 -12049707.788 -11516682.125 10 0 60202 52200.00000 0 -17798364.871 -11491192.751 -14180149.655 10 0 60202 53100.00000 0 -15965674.182 -10976731.485 -16567695.114 10 0 60202 54000.00000 0 -13829170.657 -10556494.991 -18632860.186 10 0 60202 54900.00000 0 -11436521.240 -10273672.335 -20335471.652 10 0 60202 55800.00000 0 -8844375.276 -10162516.339 -21642425.246 10 0 60202 56700.00000 0 -6116221.646 -10246783.073 -22528329.889 10 0 60202 57600.00000 0 -3319967.580 -10538631.398 -22975999.996 10 0 60202 58500.00000 0 -525340.010 -11038029.148 -22976786.564 10 0 60202 59400.00000 0 2198782.551 -11732691.013 -22530741.039 10 0 60202 60300.00000 0 4786996.880 -12598550.669 -21646609.188 10 0 60202 61200.00000 0 7179851.829 -13600747.138 -20341655.466 10 0 60202 62100.00000 0 9326072.737 -14695083.672 -18641321.675 10 0 60202 63000.00000 0 11184441.805 -15829897.539 -16578726.724 10 0 60202 63900.00000 0 12725257.283 -16948261.836 -14194017.518 10 0 60202 64800.00000 0 13931312.052 -17990426.411 -11533583.735 10 0 60202 65700.00000 0 14798352.315 -18896394.976 -8649151.946 10 0 60202 66600.00000 0 15334998.946 -19608529.696 -5596776.924 10 0 60202 67500.00000 0 15562136.567 -20074073.452 -2435750.007 10 0 60202 68400.00000 0 15511797.740 -20247483.454 772554.028 10 0 60202 69300.00000 0 15225590.768 -20092477.860 3965868.863 10 0 60202 70200.00000 0 14752738.640 -19583709.247 7082243.961 10 0 60202 71100.00000 0 14147812.806 -18707994.471 10061243.786 10 0 60202 72000.00000 0 13468258.018 -17465049.181 12845115.660 10 0 60202 72900.00000 0 12771812.938 -15867695.959 15379903.863 10 0 60202 73800.00000 0 12113935.278 -13941537.071 17616488.861 10 0 60202 74700.00000 0 11545339.693 -11724105.013 19511532.096 10 0 60202 75600.00000 0 11109751.676 -9263525.614 21028308.854 10 0 60202 76500.00000 0 10841971.451 -6616748.478 22137413.911 10 0 60202 77400.00000 0 10766328.809 -3847417.289 22817327.039 10 0 60202 78300.00000 0 10895593.488 -1023467.153 23054828.107 10 0 60202 79200.00000 0 11230386.805 1785452.706 22845254.154 10 0 60202 80100.00000 0 11759119.463 4510625.399 22192593.514 10 0 60202 81000.00000 0 12458458.705 7086873.596 21109415.012 10 0 60202 81900.00000 0 13294306.005 9455020.641 19616632.964 10 0 60202 82800.00000 0 14223245.254 11564104.387 17743111.758 10 0 60202 83700.00000 0 15194401.663 13373252.574 15525116.620 10 0 60202 84600.00000 0 16151634.221 14853142.248 13005620.088 10 0 60202 85500.00000 0 17035970.233 15986982.725 10233476.615 10 0 60203 0.00000 0 17788179.823 16770981.165 7262480.699 10 0 60203 900.00000 0 18351382.335 17214271.751 4150324.550 10 0 60203 1800.00000 0 18673573.324 17338310.619 957479.330 10 0 60203 2700.00000 0 18709966.123 17175763.556 -2253983.552 10 0 60203 3600.00000 0 18425046.918 16768932.561 -5421603.824 10 0 60203 4500.00000 0 17794255.693 16167788.600 -8483753.712 10 0 60203 5400.00000 0 16805220.515 15427694.225 -11380844.416 10 0 60203 6300.00000 0 15458491.603 14606913.039 -14056493.315 10 0 60203 7200.00000 0 13767742.842 13764012.163 -16458628.293 10 0 60203 8100.00000 0 11759430.998 12955268.335 -18540506.958 10 0 60203 9000.00000 0 9471925.900 12232188.016 -20261630.438 10 0 60203 9900.00000 0 6954147.246 11639246.863 -21588533.652 10 0 60203 10800.00000 0 4263764.493 11211944.419 -22495436.653 10 0 60203 11700.00000 0 1465034.573 10975256.261 -22964744.589 10 0 60203 12600.00000 0 -1373632.644 10942548.852 -22987386.811 10 0 60203 13500.00000 0 -4182280.021 11115002.593 -22562988.998 10 0 60203 14400.00000 0 -6892071.828 11481567.025 -21699875.346 10 0 60203 15300.00000 0 -9437914.769 12019449.579 -20414901.186 10 0 60203 16200.00000 0 -11760922.907 12695116.788 -18733119.624 10 0 60203 17100.00000 0 -13810624.686 13465765.260 -16687288.920 10 0 60203 18000.00000 0 -15546821.033 14281199.919 -14317230.421 10 0 60203 18900.00000 0 -16941018.286 15086039.927 -11669049.702 10 0 60203 19800.00000 0 -17977377.472 15822158.855 -8794236.205 10 0 60203 20700.00000 0 -18653141.743 16431255.854 -5748659.139 10 0 60203 21600.00000 0 -18978525.664 16857449.093 -2591479.371 10 0 60203 22500.00000 0 -18976072.639 17049781.822 616001.277 10 0 60203 23400.00000 0 -18679508.992 16964535.184 3811530.644 10 0 60203 24300.00000 0 -18132144.278 16567250.137 6933113.449 10 0 60203 25200.00000 0 -17384886.285 15834373.153 9920211.536 10 0 60203 26100.00000 0 -16493955.156 14754456.273 12714913.877 10 0 60203 27000.00000 0 -15518393.334 13328860.838 15263053.866 10 0 60203 27900.00000 0 -14517476.346 11571934.960 17515252.701 10 0 60203 28800.00000 0 -13548133.124 9510656.770 19427869.234 10 0 60203 29700.00000 0 -12662483.957 7183757.553 20963838.662 10 0 60203 30600.00000 0 -11905598.859 4640360.355 22093384.685 10 0 60203 31500.00000 0 -11313569.823 1938189.554 22794592.080 10 0 60203 32400.00000 0 -10911977.233 -858575.553 23053829.305 10 0 60203 33300.00000 0 -10714814.252 -3681715.524 22866013.358 10 0 60203 34200.00000 0 -10723914.109 -6461555.239 22234711.893 10 0 60203 35100.00000 0 -10928904.301 -9129612.304 21172080.400 10 0 60203 36000.00000 0 -11307689.981 -11621200.952 19698635.111 10 0 60203 36900.00000 0 -11827446.789 -13877884.376 17842865.228 10 0 60203 37800.00000 0 -12446082.126 -15849674.533 15640690.933 10 0 60203 38700.00000 0 -13114104.177 -17496888.468 13134776.610 10 0 60203 39600.00000 0 -13776820.634 -18791584.066 10373711.512 10 0 60203 40500.00000 0 -14376774.918 -19718515.444 7411072.902 10 0 60203 41400.00000 0 -14856317.255 -20275567.969 4304389.166 10 0 60203 42300.00000 0 -15160201.778 -20473654.610 1114022.816 10 0 60203 43200.00000 0 -15238099.325 -20336077.974 -2098004.906 10 0 60203 44100.00000 0 -15046918.712 -19897384.975 -5269224.570 10 0 60203 45000.00000 0 -14552837.069 -19201762.671 -8337939.994 10 0 60203 45900.00000 0 -13732952.007 -18301043.390 -11244435.973 10 0 60203 46800.00000 0 -12576484.221 -17252403.915 -13932147.917 10 0 60203 47700.00000 0 -11085478.307 -16115856.633 -16348769.686 10 0 60203 48600.00000 0 -9274970.774 -14951639.253 -18447277.385 10 0 60203 49500.00000 0 -7172616.922 -13817613.973 -20186848.647 10 0 60203 50400.00000 0 -4817791.164 -12766786.360 -21533659.246 10 0 60203 51300.00000 0 -2260197.621 -11845048.890 -22461541.478 10 0 60203 52200.00000 0 441951.592 -11089244.302 -22952491.728 10 0 60203 53100.00000 0 3224114.827 -10525630.207 -22997017.615 10 0 60203 54000.00000 0 6017865.699 -10168809.131 -22594318.402 10 0 60203 54900.00000 0 8753502.776 -10021168.448 -21752295.568 10 0 60203 55800.00000 0 11362715.893 -10072852.976 -20487393.731 10 0 60203 56700.00000 0 13781198.572 -10302270.585 -18824275.333 10 0 60203 57600.00000 0 15951098.418 -10677108.582 -16795335.664 10 0 60203 58500.00000 0 17823204.081 -11155817.247 -14440067.873 10 0 60203 59400.00000 0 19358778.544 -11689497.136 -11804290.480 10 0 60203 60300.00000 0 20530963.279 -12224109.844 -8939252.576 10 0 60203 61200.00000 0 21325695.789 -12702918.316 -5900634.344 10 0 60203 62100.00000 0 21742103.515 -13069053.142 -2747462.570 10 0 60203 63000.00000 0 21792359.005 -13268096.090 459037.534 10 0 60203 63900.00000 0 21501003.840 -13250571.448 3656631.554 10 0 60203 64800.00000 0 20903771.047 -12974239.760 6783282.845 10 0 60203 65700.00000 0 20045956.650 -12406096.993 9778353.700 10 0 60203 66600.00000 0 18980409.717 -11523994.680 12583777.394 10 0 60203 67500.00000 0 17765226.025 -10317812.537 15145178.605 10 0 60203 68400.00000 0 16461242.515 -8790133.923 17412920.929 10 0 60203 69300.00000 0 15129437.714 -6956395.218 19343061.771 10 0 60203 70200.00000 0 13828346.876 -4844502.093 20898196.888 10 0 60203 71100.00000 0 12611599.590 -2493927.680 22048179.078 10 0 60203 72000.00000 0 11525682.338 45670.984 22770697.852 10 0 60203 72900.00000 0 10608018.854 2716262.091 23051709.569 10 0 60203 73800.00000 0 9885447.913 5453600.142 22885710.144 10 0 60203 74700.00000 0 9373161.669 8189650.846 22275845.158 10 0 60203 75600.00000 0 9074148.592 10855180.759 21233855.093 10 0 60203 76500.00000 0 8979164.200 13382405.659 19779856.178 10 0 60203 77400.00000 0 9067230.931 15707588.871 17941960.306 10 0 60203 78300.00000 0 9306646.472 17773482.509 15755740.360 10 0 60203 79200.00000 0 9656458.574 19531510.702 13263550.191 10 0 60203 80100.00000 0 10068344.724 20943604.059 10513711.393 10 0 60203 81000.00000 0 10488817.772 21983608.882 7559581.749 10 0 60203 81900.00000 0 10861664.560 22638212.012 4458522.745 10 0 60203 82800.00000 0 11130514.337 22907342.291 1270785.960 10 0 60203 83700.00000 0 11241427.854 22804031.558 -1941660.019 10 0 60203 84600.00000 0 11145396.763 22353740.862 -5116338.979 10 0 60203 85500.00000 0 10800646.385 21593180.247 -8191488.527 99